User: anonymous   Login
Location: Unspecified
(0.0000°N, 0.0000°E)
Time: 00:59:46
(UTC+00:00)
Language:

TBA - TO BE ASSIGNED - Orbit

View from above orbital plane
View from above orbital plane
View from above satellite
View from above satellite

Ground track
Ground track

The orbit is defined by the following mean orbital elements,

1 67921U          26145.55044723 +.00000000 +00000-0 +49927-3 0 00000
2 67921  43.0007 171.4919 0001302 265.0246  95.0457 15.27598155    02
Epoch (UTC): 25 May 2026 13:12:38
Eccentricity: 0.0001302
inclination: 43.0007°
perigee height: 482 km
apogee height: 484 km
right ascension of ascending node: 171.4919°
argument of perigee: 265.0246°
revolutions per day: 15.27598155
mean anomaly at epoch: 95.0457°

The dashed part of the orbit path shows where the satellite is in the earth's shadow,  

DLR